QPF
0.01 0.02 0.03 0.04 0.06 0.04 0.02 0.02 0.02 0.03 0.04 0.04 0.04 0.04 0.04 0.04 0.04 0.04 0.03 0.04 0.06 0.07 0.07 0.07 0.09 0.15 0.22 0.24 0.23 0.19 0.14 0.11 0.10 0.08 0.08 0.06 0.05 0.05 0.06 0.08 0.08 0.08 0.10
0.00 0.01 0.02 0.04 0.13 0.08 0.03 0.02 0.02 0.03 0.04 0.04 0.03 0.03 0.04 0.04 0.05 0.07 0.05 0.05 0.06 0.06 0.08 0.07 0.09 0.15 0.18 0.18 0.14 0.14 0.13 0.11 0.11 0.10 0.08 0.06 0.04 0.04 0.05 0.05 0.05 0.06 0.07
0.00 0.01 0.01 0.02 0.04 0.03 0.02 0.02 0.02 0.03 0.04 0.05 0.04 0.03 0.03 0.05 0.07 0.11 0.09 0.07 0.05 0.06 0.09 0.11 0.15 0.16 0.15 0.13 0.09 0.08 0.08 0.10 0.09 0.09 0.07 0.05 0.04 0.05 0.05 0.05 0.05 0.05 0.05
0.00 0.00 0.01 0.01 0.03 0.03 0.01 0.01 0.01 0.02 0.03 0.04 0.04 0.03 0.04 0.05 0.06 0.11 0.10 0.07 0.05 0.05 0.08 0.09 0.09 0.09 0.10 0.08 0.07 0.07 0.06 0.06 0.06 0.05 0.03 0.03 0.04 0.05 0.05 0.05 0.06 0.06 0.06
0.00 0.00 0.00 0.01 0.02 0.03 0.02 0.01 0.01 0.02 0.03 0.03 0.03 0.03 0.03 0.04 0.04 0.06 0.07 0.07 0.05 0.07 0.08 0.06 0.06 0.05 0.06 0.06 0.06 0.06 0.05 0.05 0.05 0.05 0.03 0.03 0.05 0.06 0.05 0.05 0.05 0.05 0.05
0.00 0.00 0.00 0.01 0.02 0.02 0.03 0.02 0.02 0.02 0.03 0.03 0.03 0.03 0.03 0.03 0.04 0.05 0.05 0.07 0.07 0.08 0.08 0.06 0.05 0.05 0.06 0.05 0.05 0.06 0.06 0.05 0.04 0.05 0.05 0.04 0.05 0.04 0.04 0.05 0.04 0.04 0.05
0.00 0.01 0.01 0.01 0.02 0.02 0.03 0.03 0.03 0.02 0.02 0.03 0.03 0.02 0.02 0.03 0.03 0.04 0.05 0.07 0.09 0.09 0.09 0.08 0.07 0.07 0.06 0.07 0.07 0.08 0.07 0.05 0.04 0.05 0.05 0.05 0.06 0.05 0.05 0.06 0.06 0.05 0.06
0.00 0.00 0.01 0.02 0.02 0.02 0.02 0.02 0.01 0.01 0.02 0.03 0.03 0.03 0.03 0.04 0.04 0.05 0.07 0.08 0.12 0.11 0.11 0.10 0.09 0.09 0.09 0.08 0.09 0.08 0.05 0.03 0.04 0.04 0.04 0.04 0.04 0.04 0.06 0.07 0.07 0.06 0.06
0.00 0.00 0.00 0.01 0.02 0.02 0.02 0.01 0.01 0.01 0.01 0.01 0.02 0.03 0.03 0.04 0.04 0.06 0.07 0.07 0.09 0.10 0.11 0.10 0.09 0.08 0.09 0.09 0.10 0.08 0.07 0.06 0.05 0.05 0.03 0.04 0.05 0.05 0.07 0.09 0.07 0.06 0.05
0.01 0.00 0.01 0.01 0.02 0.02 0.02 0.01 0.01 0.01 0.01 0.01 0.01 0.02 0.03 0.03 0.03 0.05 0.05 0.06 0.07 0.09 0.11 0.13 0.15 0.12 0.12 0.09 0.07 0.07 0.07 0.08 0.05 0.05 0.07 0.06 0.06 0.06 0.07 0.08 0.09 0.08 0.06
0.01 0.01 0.01 0.01 0.01 0.01 0.01 0.01 0.01 0.01 0.01 0.01 0.01 0.02 0.03 0.03 0.03 0.04 0.05 0.06 0.07 0.11 0.16 0.24 0.29 0.23 0.17 0.11 0.09 0.09 0.09 0.09 0.07 0.07 0.08 0.07 0.05 0.06 0.05 0.06 0.09 0.08 0.07
0.00 0.01 0.00 0.00 0.01 0.01 0.01 0.01 0.01 0.01 0.01 0.01 0.01 0.02 0.03 0.03 0.03 0.03 0.04 0.05 0.06 0.08 0.13 0.16 0.21 0.19 0.13 0.11 0.10 0.10 0.09 0.08 0.06 0.06 0.07 0.06 0.05 0.05 0.07 0.07 0.07 0.07 0.08
0.00 0.00 0.00 0.00 0.01 0.01 0.01 0.01 0.01 0.01 0.01 0.01 0.01 0.02 0.02 0.02 0.02 0.03 0.03 0.05 0.06 0.05 0.10 0.11 0.12 0.12 0.10 0.08 0.07 0.07 0.08 0.07 0.06 0.06 0.06 0.05 0.05 0.06 0.07 0.07 0.06 0.07 0.08
0.00 0.00 0.00 0.01 0.01 0.01 0.01 0.01 0.01 0.01 0.01 0.01 0.01 0.02 0.02 0.01 0.02 0.02 0.03 0.04 0.04 0.05 0.07 0.08 0.07 0.06 0.05 0.05 0.05 0.04 0.04 0.05 0.06 0.05 0.06 0.05 0.05 0.06 0.06 0.06 0.06 0.06 0.06
0.00 0.00 0.00 0.02 0.01 0.00 0.00 0.00 0.00 0.01 0.01 0.01 0.01 0.01 0.02 0.02 0.02 0.03 0.03 0.03 0.02 0.03 0.04 0.04 0.04 0.03 0.03 0.03 0.04 0.05 0.05 0.04 0.04 0.05 0.06 0.05 0.04 0.05 0.06 0.06 0.06 0.07 0.07
0.00 0.00 0.00 0.01 0.00 0.00 0.00 0.00 0.00 0.01 0.01 0.01 0.01 0.01 0.02 0.03 0.03 0.03 0.03 0.02 0.02 0.02 0.03 0.03 0.02 0.02 0.04 0.05 0.05 0.06 0.07 0.06 0.05 0.05 0.06 0.05 0.05 0.06 0.06 0.06 0.06 0.06 0.07
0.00 0.00 0.00 0.01 0.01 0.01 0.01 0.00 0.00 0.01 0.01 0.02 0.02 0.01 0.01 0.02 0.03 0.03 0.03 0.02 0.02 0.02 0.02 0.03 0.02 0.03 0.04 0.06 0.06 0.07 0.09 0.08 0.06 0.05 0.04 0.04 0.05 0.06 0.07 0.06 0.07 0.07 0.08
0.00 0.00 0.01 0.01 0.01 0.01 0.01 0.00 0.00 0.01 0.02 0.03 0.03 0.02 0.02 0.02 0.02 0.03 0.02 0.01 0.01 0.02 0.02 0.03 0.04 0.06 0.06 0.06 0.06 0.07 0.07 0.06 0.05 0.06 0.05 0.03 0.03 0.04 0.04 0.05 0.07 0.07 0.07
0.01 0.01 0.01 0.01 0.01 0.01 0.01 0.01 0.01 0.02 0.02 0.02 0.02 0.03 0.03 0.03 0.03 0.03 0.03 0.03 0.03 0.03 0.04 0.04 0.06 0.07 0.06 0.06 0.06 0.05 0.05 0.04 0.04 0.04 0.04 0.04 0.04 0.05 0.04 0.03 0.04 0.05 0.06
0.01 0.01 0.01 0.01 0.01 0.02 0.02 0.02 0.01 0.02 0.02 0.02 0.02 0.04 0.04 0.04 0.04 0.04 0.05 0.06 0.05 0.05 0.06 0.07 0.08 0.08 0.08 0.08 0.06 0.04 0.03 0.03 0.02 0.03 0.04 0.04 0.04 0.04 0.03 0.03 0.03 0.03 0.04
0.01 0.01 0.01 0.01 0.02 0.01 0.02 0.03 0.02 0.03 0.03 0.03 0.03 0.05 0.07 0.06 0.07 0.07 0.06 0.08 0.08 0.08 0.07 0.07 0.08 0.09 0.10 0.09 0.07 0.06 0.03 0.02 0.02 0.02 0.02 0.02 0.03 0.03 0.03 0.03 0.03 0.03 0.03
0.01 0.02 0.02 0.02 0.02 0.02 0.02 0.02 0.03 0.03 0.02 0.02 0.03 0.06 0.07 0.07 0.08 0.08 0.08 0.08 0.10 0.11 0.10 0.09 0.09 0.10 0.10 0.09 0.08 0.10 0.07 0.05 0.03 0.02 0.02 0.01 0.02 0.02 0.03 0.03 0.02 0.02 0.02
0.01 0.02 0.02 0.02 0.03 0.03 0.03 0.03 0.03 0.03 0.04 0.04 0.04 0.05 0.05 0.05 0.04 0.07 0.11 0.12 0.13 0.13 0.13 0.13 0.13 0.13 0.11 0.08 0.07 0.09 0.10 0.07 0.05 0.03 0.02 0.01 0.02 0.02 0.02 0.02 0.01 0.01 0.01
0.02 0.02 0.03 0.03 0.05 0.07 0.06 0.05 0.05 0.05 0.06 0.06 0.05 0.06 0.06 0.05 0.05 0.06 0.08 0.08 0.09 0.09 0.11 0.13 0.15 0.15 0.12 0.08 0.06 0.06 0.06 0.06 0.06 0.04 0.03 0.02 0.02 0.02 0.01 0.01 0.01 0.01 0.01
0.02 0.02 0.03 0.04 0.04 0.06 0.08 0.07 0.06 0.04 0.04 0.04 0.05 0.05 0.05 0.06 0.05 0.04 0.05 0.05 0.05 0.06 0.07 0.10 0.13 0.14 0.11 0.09 0.07 0.06 0.06 0.06 0.05 0.04 0.04 0.03 0.03 0.02 0.01 0.01 0.01 0.02 0.02
0.02 0.01 0.02 0.03 0.03 0.03 0.04 0.04 0.04 0.03 0.03 0.03 0.04 0.05 0.04 0.03 0.03 0.04 0.04 0.03 0.03 0.04 0.05 0.07 0.08 0.11 0.09 0.07 0.06 0.05 0.05 0.06 0.06 0.06 0.05 0.04 0.03 0.02 0.02 0.02 0.02 0.01 0.02
MSLP
1006.74 1006.67 1006.73 1006.90 1007.11 1007.28 1007.36 1007.30 1007.13 1006.87 1006.61 1006.40 1006.33 1006.42 1006.66 1007.01 1007.42 1007.84 1008.21 1008.52 1008.77 1008.99 1009.21 1009.46 1009.75 1010.07 1010.40 1010.71 1010.99 1011.21 1011.40 1011.58 1011.77 1012.00 1012.28 1012.61 1012.96 1013.31 1013.64 1013.93 1014.20 1014.45 1014.71
1006.79 1006.80 1006.93 1007.15 1007.39 1007.57 1007.63 1007.56 1007.34 1007.05 1006.74 1006.50 1006.41 1006.47 1006.70 1007.06 1007.48 1007.91 1008.31 1008.65 1008.94 1009.21 1009.48 1009.78 1010.10 1010.43 1010.75 1011.03 1011.26 1011.43 1011.56 1011.69 1011.85 1012.08 1012.38 1012.74 1013.14 1013.55 1013.93 1014.27 1014.55 1014.80 1015.05
1006.75 1006.85 1007.06 1007.34 1007.62 1007.83 1007.91 1007.83 1007.60 1007.28 1006.94 1006.67 1006.52 1006.54 1006.73 1007.04 1007.43 1007.85 1008.25 1008.62 1008.96 1009.30 1009.65 1010.02 1010.40 1010.77 1011.11 1011.38 1011.57 1011.69 1011.77 1011.86 1011.99 1012.20 1012.51 1012.91 1013.36 1013.82 1014.25 1014.62 1014.93 1015.18 1015.40
1006.65 1006.82 1007.10 1007.44 1007.77 1008.03 1008.14 1008.08 1007.87 1007.56 1007.21 1006.90 1006.71 1006.67 1006.78 1007.03 1007.36 1007.73 1008.12 1008.52 1008.91 1009.32 1009.76 1010.22 1010.68 1011.11 1011.48 1011.76 1011.93 1012.01 1012.04 1012.08 1012.18 1012.39 1012.70 1013.12 1013.61 1014.11 1014.58 1014.99 1015.31 1015.57 1015.78
1006.52 1006.74 1007.07 1007.46 1007.84 1008.13 1008.29 1008.29 1008.12 1007.83 1007.50 1007.19 1006.96 1006.87 1006.91 1007.08 1007.34 1007.67 1008.04 1008.44 1008.88 1009.36 1009.87 1010.42 1010.96 1011.45 1011.86 1012.14 1012.30 1012.36 1012.36 1012.37 1012.44 1012.63 1012.94 1013.37 1013.88 1014.41 1014.91 1015.35 1015.69 1015.95 1016.16
1006.41 1006.66 1007.01 1007.42 1007.83 1008.16 1008.36 1008.41 1008.30 1008.07 1007.77 1007.48 1007.26 1007.13 1007.12 1007.23 1007.43 1007.71 1008.06 1008.46 1008.93 1009.45 1010.03 1010.64 1011.24 1011.78 1012.21 1012.51 1012.67 1012.72 1012.70 1012.68 1012.73 1012.90 1013.21 1013.64 1014.16 1014.71 1015.23 1015.68 1016.04 1016.32 1016.53
1006.37 1006.63 1006.97 1007.37 1007.77 1008.12 1008.36 1008.45 1008.41 1008.24 1008.00 1007.75 1007.55 1007.42 1007.39 1007.47 1007.63 1007.88 1008.20 1008.60 1009.08 1009.63 1010.24 1010.88 1011.51 1012.07 1012.52 1012.83 1012.99 1013.04 1013.02 1013.00 1013.04 1013.21 1013.50 1013.93 1014.44 1014.98 1015.50 1015.96 1016.34 1016.63 1016.86
1006.44 1006.67 1006.98 1007.35 1007.73 1008.07 1008.31 1008.44 1008.45 1008.34 1008.17 1007.97 1007.81 1007.71 1007.69 1007.75 1007.90 1008.14 1008.45 1008.84 1009.31 1009.86 1010.47 1011.11 1011.74 1012.31 1012.76 1013.07 1013.24 1013.30 1013.30 1013.29 1013.35 1013.51 1013.80 1014.21 1014.70 1015.22 1015.73 1016.19 1016.58 1016.88 1017.13
1006.59 1006.79 1007.07 1007.39 1007.73 1008.04 1008.28 1008.42 1008.45 1008.39 1008.28 1008.14 1008.03 1007.96 1007.97 1008.05 1008.21 1008.44 1008.75 1009.13 1009.59 1010.12 1010.70 1011.32 1011.92 1012.46 1012.90 1013.22 1013.41 1013.50 1013.54 1013.57 1013.65 1013.82 1014.11 1014.50 1014.96 1015.45 1015.94 1016.38 1016.76 1017.08 1017.35
1006.79 1006.98 1007.22 1007.51 1007.80 1008.07 1008.29 1008.42 1008.47 1008.44 1008.37 1008.28 1008.21 1008.19 1008.23 1008.33 1008.50 1008.74 1009.04 1009.41 1009.85 1010.35 1010.89 1011.47 1012.03 1012.54 1012.97 1013.30 1013.53 1013.66 1013.75 1013.83 1013.95 1014.15 1014.43 1014.80 1015.23 1015.68 1016.13 1016.55 1016.92 1017.25 1017.53
1006.99 1007.20 1007.43 1007.69 1007.95 1008.19 1008.37 1008.49 1008.54 1008.53 1008.48 1008.43 1008.39 1008.40 1008.47 1008.59 1008.77 1009.02 1009.31 1009.67 1010.07 1010.53 1011.04 1011.57 1012.09 1012.58 1013.01 1013.36 1013.62 1013.82 1013.97 1014.12 1014.29 1014.51 1014.79 1015.14 1015.53 1015.94 1016.34 1016.73 1017.09 1017.41 1017.71
1007.14 1007.39 1007.64 1007.90 1008.15 1008.36 1008.53 1008.64 1008.69 1008.68 1008.65 1008.62 1008.61 1008.64 1008.72 1008.85 1009.04 1009.27 1009.55 1009.88 1010.26 1010.68 1011.15 1011.64 1012.14 1012.63 1013.07 1013.45 1013.76 1014.03 1014.25 1014.46 1014.67 1014.92 1015.20 1015.52 1015.87 1016.23 1016.60 1016.96 1017.29 1017.61 1017.91
1007.22 1007.52 1007.82 1008.11 1008.36 1008.57 1008.74 1008.84 1008.90 1008.90 1008.89 1008.88 1008.88 1008.92 1009.01 1009.14 1009.31 1009.52 1009.78 1010.08 1010.43 1010.82 1011.27 1011.74 1012.23 1012.72 1013.19 1013.62 1013.99 1014.32 1014.61 1014.87 1015.13 1015.39 1015.66 1015.96 1016.27 1016.59 1016.91 1017.23 1017.55 1017.86 1018.16
1007.20 1007.59 1007.95 1008.27 1008.55 1008.78 1008.95 1009.07 1009.14 1009.17 1009.18 1009.19 1009.22 1009.27 1009.35 1009.47 1009.62 1009.80 1010.03 1010.30 1010.62 1010.99 1011.42 1011.90 1012.40 1012.92 1013.43 1013.90 1014.34 1014.72 1015.06 1015.37 1015.64 1015.91 1016.17 1016.43 1016.70 1016.98 1017.27 1017.56 1017.86 1018.16 1018.46
1007.11 1007.58 1008.00 1008.37 1008.68 1008.93 1009.12 1009.27 1009.37 1009.43 1009.48 1009.53 1009.59 1009.66 1009.74 1009.85 1009.98 1010.13 1010.32 1010.56 1010.86 1011.22 1011.66 1012.15 1012.68 1013.24 1013.79 1014.32 1014.80 1015.23 1015.60 1015.93 1016.21 1016.46 1016.70 1016.93 1017.16 1017.39 1017.64 1017.91 1018.19 1018.48 1018.77
1006.98 1007.50 1007.98 1008.39 1008.73 1009.01 1009.23 1009.40 1009.53 1009.65 1009.75 1009.85 1009.95 1010.05 1010.15 1010.26 1010.37 1010.50 1010.67 1010.88 1011.17 1011.53 1011.97 1012.48 1013.05 1013.66 1014.25 1014.83 1015.35 1015.80 1016.19 1016.51 1016.78 1017.01 1017.21 1017.40 1017.59 1017.79 1018.00 1018.24 1018.50 1018.77 1019.05
1006.81 1007.39 1007.91 1008.35 1008.72 1009.01 1009.25 1009.45 1009.62 1009.78 1009.94 1010.10 1010.26 1010.41 1010.54 1010.66 1010.78 1010.90 1011.05 1011.25 1011.52 1011.89 1012.34 1012.89 1013.49 1014.13 1014.77 1015.38 1015.92 1016.39 1016.77 1017.07 1017.31 1017.50 1017.66 1017.81 1017.96 1018.12 1018.31 1018.51 1018.74 1018.98 1019.24
1006.62 1007.24 1007.80 1008.27 1008.65 1008.96 1009.22 1009.43 1009.63 1009.84 1010.05 1010.26 1010.48 1010.68 1010.86 1011.02 1011.15 1011.28 1011.42 1011.62 1011.89 1012.27 1012.74 1013.30 1013.94 1014.61 1015.28 1015.90 1016.45 1016.91 1017.28 1017.55 1017.76 1017.91 1018.03 1018.14 1018.25 1018.38 1018.52 1018.69 1018.88 1019.09 1019.30
1006.38 1007.04 1007.64 1008.14 1008.56 1008.89 1009.15 1009.38 1009.60 1009.83 1010.07 1010.34 1010.61 1010.87 1011.10 1011.29 1011.46 1011.61 1011.77 1011.97 1012.25 1012.63 1013.11 1013.69 1014.34 1015.03 1015.70 1016.33 1016.87 1017.32 1017.66 1017.91 1018.08 1018.20 1018.29 1018.36 1018.44 1018.53 1018.64 1018.76 1018.90 1019.06 1019.23
1006.05 1006.76 1007.42 1007.98 1008.45 1008.81 1009.10 1009.34 1009.56 1009.80 1010.06 1010.36 1010.66 1010.96 1011.24 1011.48 1011.69 1011.87 1012.05 1012.27 1012.56 1012.94 1013.43 1014.00 1014.65 1015.33 1016.00 1016.61 1017.14 1017.56 1017.88 1018.11 1018.26 1018.36 1018.43 1018.48 1018.53 1018.59 1018.66 1018.74 1018.82 1018.92 1019.03
1005.60 1006.37 1007.11 1007.76 1008.31 1008.74 1009.07 1009.33 1009.56 1009.79 1010.05 1010.35 1010.67 1011.00 1011.31 1011.60 1011.84 1012.06 1012.27 1012.51 1012.81 1013.19 1013.66 1014.22 1014.85 1015.50 1016.14 1016.73 1017.23 1017.63 1017.93 1018.15 1018.29 1018.38 1018.44 1018.49 1018.53 1018.57 1018.60 1018.63 1018.66 1018.70 1018.75
1004.99 1005.83 1006.68 1007.46 1008.13 1008.65 1009.05 1009.35 1009.59 1009.82 1010.06 1010.35 1010.66 1011.00 1011.34 1011.66 1011.94 1012.19 1012.44 1012.69 1013.00 1013.37 1013.82 1014.35 1014.93 1015.54 1016.14 1016.68 1017.15 1017.53 1017.82 1018.03 1018.17 1018.27 1018.35 1018.41 1018.45 1018.47 1018.48 1018.48 1018.46 1018.45 1018.45
1004.23 1005.15 1006.12 1007.05 1007.86 1008.52 1009.01 1009.37 1009.64 1009.87 1010.10 1010.36 1010.66 1011.00 1011.35 1011.69 1012.00 1012.29 1012.56 1012.84 1013.14 1013.49 1013.91 1014.39 1014.92 1015.47 1016.01 1016.51 1016.94 1017.29 1017.57 1017.78 1017.94 1018.06 1018.16 1018.24 1018.29 1018.33 1018.33 1018.30 1018.26 1018.21 1018.17
1003.39 1004.37 1005.45 1006.53 1007.50 1008.30 1008.91 1009.35 1009.67 1009.91 1010.13 1010.38 1010.66 1010.99 1011.34 1011.70 1012.04 1012.36 1012.66 1012.95 1013.25 1013.59 1013.97 1014.39 1014.86 1015.34 1015.81 1016.25 1016.64 1016.96 1017.23 1017.45 1017.62 1017.77 1017.90 1018.01 1018.09 1018.14 1018.15 1018.12 1018.07 1018.00 1017.95
1002.59 1003.57 1004.73 1005.92 1007.03 1007.96 1008.69 1009.22 1009.60 1009.87 1010.11 1010.35 1010.63 1010.95 1011.31 1011.69 1012.06 1012.41 1012.73 1013.04 1013.34 1013.66 1014.00 1014.37 1014.77 1015.18 1015.59 1015.97 1016.31 1016.61 1016.86 1017.08 1017.27 1017.45 1017.60 1017.74 1017.85 1017.93 1017.96 1017.95 1017.91 1017.85 1017.80
1001.96 1002.89 1004.05 1005.30 1006.48 1007.51 1008.33 1008.95 1009.39 1009.71 1009.97 1010.23 1010.52 1010.86 1011.24 1011.64 1012.04 1012.42 1012.77 1013.09 1013.40 1013.71 1014.02 1014.35 1014.69 1015.04 1015.39 1015.71 1016.01 1016.28 1016.52 1016.73 1016.93 1017.12 1017.30 1017.47 1017.61 1017.71 1017.77 1017.79 1017.78 1017.75 1017.73
Thickness
5805 5802 5790 5787 5785 5783 5782 5780 5779 5778 5777 5776 5775 5775 5774 5773 5772 5772 5770 5770 5769 5769 5768 5768 5767 5766 5765 5764 5763 5761 5761 5760 5759 5759 5759 5758 5758 5757 5756 5756 5756 5756 5752
5807 5801 5790 5787 5784 5783 5781 5779 5778 5776 5775 5774 5774 5773 5772 5771 5771 5770 5769 5768 5767 5767 5767 5766 5765 5764 5762 5761 5760 5759 5759 5758 5757 5757 5757 5757 5756 5755 5754 5754 5754 5754 5750
5805 5799 5791 5786 5783 5781 5779 5778 5776 5775 5774 5773 5772 5772 5771 5770 5769 5768 5767 5766 5765 5764 5764 5763 5763 5762 5760 5759 5759 5758 5757 5756 5756 5756 5757 5758 5756 5753 5752 5752 5751 5750 5748
5804 5798 5792 5785 5782 5780 5778 5776 5775 5773 5772 5771 5771 5770 5770 5768 5767 5766 5765 5764 5763 5762 5761 5760 5760 5759 5758 5757 5757 5756 5755 5755 5755 5756 5758 5759 5756 5752 5751 5750 5748 5747 5746
5803 5798 5789 5783 5781 5778 5776 5775 5773 5772 5771 5770 5769 5769 5768 5767 5766 5764 5763 5762 5761 5760 5759 5758 5757 5757 5756 5755 5755 5754 5754 5754 5754 5756 5758 5757 5755 5751 5749 5748 5746 5745 5744
5802 5797 5788 5782 5779 5777 5775 5773 5772 5770 5769 5768 5767 5767 5766 5765 5764 5763 5762 5760 5759 5758 5757 5757 5756 5755 5755 5754 5753 5753 5752 5753 5755 5756 5756 5755 5753 5749 5747 5746 5744 5743 5742
5800 5796 5788 5780 5778 5776 5773 5771 5770 5769 5768 5766 5766 5765 5764 5763 5763 5761 5760 5759 5757 5756 5756 5755 5754 5754 5753 5753 5752 5751 5751 5752 5755 5756 5755 5753 5750 5747 5745 5744 5742 5741 5740
5798 5794 5786 5779 5776 5774 5772 5770 5769 5767 5766 5765 5764 5763 5762 5761 5761 5760 5759 5757 5756 5755 5754 5753 5752 5752 5752 5751 5750 5749 5749 5750 5753 5754 5753 5751 5747 5745 5743 5742 5741 5740 5739
5797 5793 5787 5782 5777 5773 5771 5769 5767 5765 5764 5763 5762 5761 5760 5759 5759 5758 5757 5756 5755 5754 5753 5752 5751 5751 5750 5749 5748 5747 5747 5748 5752 5752 5751 5749 5745 5743 5741 5740 5739 5738 5738
5794 5791 5786 5783 5779 5776 5773 5768 5765 5763 5762 5761 5760 5759 5759 5758 5757 5756 5756 5754 5753 5752 5751 5750 5750 5749 5749 5748 5747 5746 5746 5748 5751 5751 5749 5746 5743 5741 5740 5739 5738 5737 5737
5790 5789 5786 5783 5780 5778 5775 5769 5765 5762 5760 5759 5759 5757 5758 5760 5759 5757 5755 5752 5751 5751 5749 5749 5748 5747 5747 5746 5745 5745 5746 5749 5750 5749 5747 5744 5741 5740 5739 5738 5737 5737 5736
5786 5786 5785 5782 5779 5777 5774 5770 5767 5765 5762 5761 5759 5758 5758 5758 5757 5756 5752 5751 5750 5749 5748 5747 5747 5747 5747 5748 5746 5745 5748 5749 5748 5747 5745 5741 5739 5738 5738 5737 5736 5736 5735
5788 5785 5784 5781 5778 5775 5772 5770 5767 5765 5761 5760 5758 5756 5756 5756 5755 5755 5753 5751 5749 5749 5749 5748 5748 5748 5748 5748 5748 5747 5747 5747 5747 5747 5743 5739 5737 5737 5736 5736 5735 5735 5734
5787 5784 5783 5780 5776 5773 5770 5767 5765 5763 5761 5759 5756 5755 5754 5754 5753 5753 5752 5751 5751 5750 5749 5749 5748 5748 5747 5747 5746 5746 5746 5746 5745 5745 5741 5737 5736 5735 5735 5734 5734 5733 5732
5786 5783 5781 5777 5773 5769 5766 5765 5764 5761 5760 5757 5754 5753 5752 5753 5752 5751 5749 5748 5749 5749 5748 5747 5747 5746 5746 5745 5745 5745 5744 5744 5743 5742 5739 5736 5735 5734 5734 5733 5733 5732 5731
5784 5781 5780 5775 5771 5767 5764 5762 5761 5760 5756 5756 5753 5751 5749 5750 5749 5748 5747 5746 5747 5746 5746 5745 5745 5744 5744 5744 5743 5742 5742 5741 5740 5739 5739 5737 5734 5733 5732 5732 5731 5730 5730
5784 5781 5777 5774 5770 5765 5763 5761 5759 5757 5755 5753 5751 5748 5746 5746 5745 5745 5745 5744 5744 5744 5743 5742 5742 5742 5741 5741 5740 5740 5739 5738 5738 5737 5737 5737 5736 5733 5731 5731 5730 5729 5728
5784 5779 5776 5774 5769 5764 5761 5758 5757 5755 5753 5751 5749 5746 5744 5743 5742 5742 5743 5743 5741 5741 5741 5740 5740 5739 5739 5738 5737 5737 5736 5735 5735 5734 5735 5735 5734 5734 5731 5730 5729 5728 5727
5783 5778 5774 5772 5767 5764 5760 5757 5755 5752 5750 5749 5746 5745 5742 5741 5740 5740 5740 5739 5738 5739 5739 5739 5738 5737 5735 5735 5735 5734 5734 5734 5733 5733 5733 5733 5732 5731 5731 5729 5727 5726 5725
5782 5777 5773 5769 5765 5762 5759 5755 5753 5750 5749 5747 5745 5742 5740 5739 5738 5738 5738 5736 5737 5737 5735 5735 5733 5733 5733 5732 5734 5732 5731 5731 5731 5732 5731 5730 5729 5729 5729 5728 5727 5726 5723
5778 5774 5770 5766 5762 5759 5756 5753 5750 5748 5747 5745 5744 5739 5738 5736 5735 5735 5736 5734 5734 5733 5732 5732 5731 5730 5730 5730 5729 5727 5728 5729 5729 5729 5729 5728 5728 5727 5726 5726 5725 5725 5723
5775 5771 5767 5763 5761 5758 5755 5753 5750 5748 5746 5744 5742 5738 5735 5734 5732 5733 5732 5731 5730 5729 5728 5728 5727 5728 5728 5727 5725 5723 5721 5722 5723 5726 5726 5725 5725 5725 5725 5724 5723 5721 5721
5773 5769 5767 5762 5759 5756 5753 5751 5748 5745 5743 5741 5738 5737 5734 5732 5730 5729 5729 5728 5727 5727 5726 5724 5724 5723 5723 5724 5724 5722 5717 5716 5718 5721 5721 5722 5722 5722 5723 5722 5721 5720 5719
5773 5770 5765 5760 5757 5754 5751 5748 5744 5740 5737 5737 5737 5736 5733 5730 5729 5727 5726 5725 5724 5724 5722 5722 5723 5722 5720 5720 5721 5720 5719 5718 5714 5715 5718 5720 5720 5718 5719 5720 5720 5718 5717
5772 5769 5764 5759 5754 5751 5748 5745 5741 5739 5737 5736 5734 5732 5730 5729 5726 5725 5724 5723 5722 5722 5720 5719 5719 5718 5719 5718 5718 5717 5717 5716 5716 5712 5711 5713 5716 5718 5717 5717 5716 5716 5715
5770 5767 5763 5757 5752 5749 5746 5743 5739 5736 5733 5731 5729 5729 5728 5728 5726 5724 5722 5721 5720 5720 5718 5717 5716 5716 5716 5715 5716 5716 5714 5713 5712 5711 5708 5708 5710 5713 5714 5713 5713 5713 5713